Wind_Speed
24 25 25 26 28 29 28 28 27 27 27 26 25 25 24 24 23 23 22 21 20 19 18 18 17 17 16 15 15 14 14 13 13 12 12 11 11 11 11 11 11 11 11 11 10 10 10 9 9
25 26 26 28 29 30 29 28 28 28 28 28 27 27 26 25 24 23 23 23 22 21 20 19 19 19 18 17 16 16 15 15 14 14 13 13 13 13 13 13 12 12 12 12 12 12 11 11 11
26 27 28 29 30 30 29 29 29 29 30 30 29 29 27 27 26 25 25 25 23 22 22 21 20 20 20 18 18 17 17 17 16 15 15 15 14 14 14 14 14 14 14 14 13 13 13 12 12
26 27 28 29 30 30 30 30 29 30 30 31 30 30 29 29 28 27 27 26 25 24 23 22 21 21 21 20 19 19 18 18 18 17 16 16 16 15 15 15 15 15 15 15 15 15 15 15 14
25 27 27 28 29 29 30 31 31 30 31 32 32 31 30 29 29 29 29 28 27 26 25 24 23 23 23 22 21 21 21 20 20 19 18 17 17 16 17 17 17 17 17 17 17 16 17 17 17
24 26 27 27 27 28 29 30 31 29 29 30 31 31 30 29 29 29 30 29 28 27 26 25 25 25 25 24 23 22 22 22 22 21 20 19 18 18 18 18 18 18 19 19 19 18 18 18 18
23 24 25 26 27 27 28 29 29 27 27 29 30 30 29 29 29 29 30 29 28 28 28 26 26 27 26 26 25 25 24 24 24 24 23 22 21 21 19 20 20 20 20 20 20 20 19 19 19
23 24 25 25 26 26 28 29 28 27 27 29 30 30 28 28 28 29 29 29 29 28 29 28 28 28 28 27 27 26 26 26 26 26 25 24 23 23 22 21 21 22 22 22 22 22 22 21 21
24 25 25 25 26 25 26 28 28 27 28 29 30 30 29 29 29 29 29 29 29 29 29 29 29 29 29 29 29 28 28 28 28 28 27 27 25 25 24 23 23 23 23 24 24 24 23 23 23
24 25 24 25 25 25 26 28 29 29 29 29 30 30 30 29 29 29 29 29 30 30 29 30 31 31 31 31 30 30 30 30 30 30 29 29 28 27 26 26 25 25 25 26 26 26 26 26 26
24 24 23 24 25 25 26 27 29 29 30 30 30 30 30 30 30 29 29 29 30 30 30 30 30 31 32 32 32 32 32 32 32 32 31 31 30 29 29 28 27 27 27 27 28 28 28 29 29
25 24 24 25 26 26 27 28 29 29 30 30 31 31 31 32 32 32 30 30 30 31 31 32 31 32 32 34 33 33 33 34 33 33 33 33 32 31 30 30 30 29 29 29 29 29 30 30 31
25 24 24 26 27 27 27 27 28 29 29 30 31 32 32 33 33 33 32 31 32 32 32 34 34 33 33 34 35 35 34 35 35 34 34 34 34 33 33 32 32 31 31 31 31 31 32 32 32
24 23 24 26 27 28 28 28 27 28 30 30 31 32 33 35 35 35 34 33 33 33 34 35 35 36 35 35 36 37 37 37 37 36 36 35 35 34 34 33 33 32 32 32 33 33 33 33 33
22 23 24 25 27 27 27 27 28 28 29 30 31 32 33 35 36 36 35 34 34 34 34 35 36 37 37 36 37 37 38 37 37 37 37 37 37 36 35 35 34 34 34 34 34 34 34 34 34
23 23 23 24 26 27 27 25 27 29 29 30 31 33 34 36 37 37 37 36 35 35 35 36 37 38 38 38 38 39 39 39 38 37 38 38 38 37 37 37 36 36 36 36 36 36 36 36 36
24 24 24 24 26 26 26 24 27 30 31 31 33 34 35 36 36 38 38 37 37 36 37 37 37 38 39 38 39 40 40 40 40 39 39 40 40 40 40 39 39 38 38 37 38 38 38 38 38
24 24 24 25 25 26 26 26 26 29 31 32 33 34 36 37 36 37 38 38 38 39 39 40 40 40 40 40 40 41 42 41 40 41 41 41 41 41 41 40 41 41 40 40 39 39 39 40 40
24 24 25 26 26 27 27 26 27 28 30 32 33 34 36 37 37 38 39 39 39 40 40 40 40 41 41 40 41 41 42 43 42 42 42 42 42 42 42 42 42 42 42 42 42 41 42 42 42
23 24 25 27 27 28 27 27 27 27 28 30 33 34 35 36 37 38 39 40 40 41 41 41 40 41 41 41 41 42 42 43 43 43 43 43 43 44 44 44 43 43 43 43 43 43 43 43 43
22 23 24 25 26 27 28 28 26 26 28 30 32 35 35 36 38 39 40 41 41 40 40 41 41 41 41 42 42 43 44 44 45 45 44 43 43 44 46 45 45 44 44 43 43 42 42 43 43
21 21 22 23 24 25 27 28 26 26 28 30 33 34 36 36 37 39 40 42 42 41 41 42 43 43 42 43 43 43 45 45 45 46 45 45 44 43 44 45 45 45 44 44 43 42 43 42 42
19 20 21 22 24 25 25 27 27 27 27 29 31 33 34 36 38 40 42 43 43 42 41 42 43 44 44 44 44 44 45 46 46 46 47 46 45 45 45 45 45 46 45 44 44 44 44 44 43
17 18 20 21 23 25 25 26 26 26 27 28 30 32 33 35 37 39 41 43 44 44 44 44 44 45 46 46 46 45 45 46 47 47 48 48 47 47 47 46 46 46 45 45 45 45 43 43 44
16 17 18 19 20 22 23 25 25 26 27 28 29 30 30 32 34 36 38 41 42 43 44 44 44 45 46 46 46 47 46 46 47 47 48 49 49 49 48 49 47 47 46 46 46 45 44 44 43
16 17 18 20 21 21 22 23 23 24 26 27 28 29 30 31 32 33 35 38 39 40 42 42 43 43 45 46 47 47 47 47 47 46 47 49 49 49 49 49 48 48 47 47 47 46 46 45 45
17 18 19 21 22 23 23 23 23 24 25 26 27 28 29 30 30 31 33 35 36 37 38 38 39 40 42 44 46 46 46 46 46 46 46 47 48 49 49 49 48 48 48 48 47 45 45 45 45
18 19 20 21 23 24 24 23 24 24 24 24 26 27 28 29 30 31 32 34 34 34 35 35 37 39 41 42 43 45 45 46 46 46 46 47 47 48 49 48 48 48 47 46 46 45 44 44 45
19 19 20 22 23 24 24 23 23 24 25 25 26 26 27 28 29 30 31 32 33 34 34 35 36 37 39 40 42 44 44 44 45 46 46 47 47 47 47 48 48 47 47 47 46 46 45 45 45
19 20 21 21 22 24 25 24 23 24 24 25 25 26 27 28 29 30 30 31 32 33 34 34 35 36 38 40 41 42 43 44 45 46 45 45 45 45 45 46 46 47 47 47 47 46 45 45 45
Wind_Direction
252 249 247 245 244 244 244 241 240 242 241 239 239 238 237 239 239 239 240 238 237 238 236 235 236 236 238 239 240 242 244 245 247 250 254 256 260 260 259 255 254 255 256 257 259 263 265 266 270
251 249 249 247 245 244 243 241 242 243 243 240 240 239 238 239 240 240 238 240 239 237 236 236 237 236 236 237 239 240 242 244 246 249 252 255 258 260 259 255 255 255 256 258 259 260 265 266 267
252 250 250 248 245 244 243 243 244 244 243 240 239 239 238 239 240 241 238 239 240 238 237 237 238 239 238 238 238 239 241 242 244 249 252 255 258 259 257 255 254 255 257 260 260 260 263 266 268
253 251 251 248 246 244 245 245 244 244 242 240 240 239 239 240 241 242 239 238 237 238 238 237 238 238 238 238 239 241 242 243 244 248 251 255 257 257 255 255 255 256 258 259 259 265 265 266 268
254 252 251 249 248 246 246 245 244 243 242 240 241 241 241 241 242 242 239 237 236 237 238 238 238 238 238 239 240 243 244 245 247 249 252 254 256 256 255 255 255 256 258 260 261 265 268 266 268
255 253 251 250 249 247 245 243 242 243 243 241 241 241 241 241 242 241 239 238 237 237 237 237 239 240 240 240 242 244 246 247 248 250 252 254 256 257 257 256 255 256 258 260 262 264 267 267 267
257 256 253 250 248 245 242 241 240 241 241 240 240 242 242 241 241 239 238 238 237 238 239 240 241 241 242 242 243 245 247 248 249 250 252 254 255 256 258 259 257 258 259 261 263 265 267 268 269
259 259 256 250 248 245 240 239 238 240 240 240 240 241 241 240 240 237 235 237 237 238 240 242 241 241 242 243 244 245 247 249 250 251 253 254 255 257 259 261 261 260 261 263 265 266 267 268 270
261 261 259 252 247 244 239 237 237 240 240 240 240 240 241 241 240 237 235 235 237 239 241 241 242 242 242 243 244 246 247 249 250 251 252 254 256 258 260 262 264 264 264 266 266 267 268 268 269
262 262 260 252 246 245 242 239 240 242 239 239 239 240 240 239 239 236 234 236 238 239 242 242 243 244 243 243 245 246 247 249 250 251 253 254 256 258 260 261 264 267 267 267 267 268 269 269 270
261 262 259 251 246 246 243 241 240 241 241 241 241 242 242 239 237 234 233 236 238 240 241 243 244 245 245 245 246 246 248 249 249 251 252 254 256 258 260 262 263 265 266 267 267 268 269 270 271
261 261 258 252 249 249 246 243 241 240 241 242 244 243 243 240 237 234 235 238 240 242 243 245 247 247 248 247 247 248 249 249 249 251 253 254 256 258 260 261 263 265 267 267 268 269 270 270 272
262 260 258 252 251 251 249 247 244 241 242 244 245 244 243 241 239 235 237 239 243 244 245 248 248 249 249 249 248 248 248 249 250 250 252 253 255 257 258 261 261 263 265 267 269 269 270 271 272
263 263 259 255 253 253 253 248 245 243 242 244 245 244 244 242 239 238 241 244 246 246 247 249 250 250 250 250 248 248 247 249 250 252 252 252 254 256 258 260 261 263 266 267 268 270 271 272 272
264 265 261 258 253 252 253 250 248 245 243 244 245 246 246 243 240 240 244 247 246 247 248 250 251 251 252 252 251 249 248 249 251 252 253 254 254 256 258 259 261 264 266 267 268 269 271 271 271
265 264 261 257 254 252 252 250 249 246 244 245 246 248 247 244 243 242 245 247 247 249 249 250 251 251 252 253 253 251 250 250 251 252 253 253 254 255 258 259 261 264 266 266 268 269 270 271 272
265 263 260 256 254 252 252 251 249 248 247 247 248 248 246 245 246 247 246 248 249 249 250 251 250 251 252 253 253 251 250 250 251 252 253 253 254 256 258 260 262 264 265 266 267 269 270 271 272
263 261 259 256 253 253 252 252 251 251 250 249 249 248 247 245 247 249 248 248 249 249 250 251 251 251 252 253 253 252 251 250 250 251 253 253 254 256 258 261 263 264 265 266 267 269 270 271 272
263 261 259 256 254 253 254 253 255 255 254 252 251 250 250 249 250 250 249 249 249 248 250 250 251 251 252 252 252 253 252 251 250 250 252 254 255 258 261 262 263 265 267 267 268 269 270 271 272
262 260 259 256 254 254 255 256 258 259 258 256 255 252 254 253 253 251 250 248 248 249 250 250 251 251 252 253 252 252 253 252 251 250 253 255 257 257 259 261 263 266 268 268 269 270 270 271 272
262 262 259 258 256 255 258 259 259 259 258 258 257 257 258 258 255 252 249 248 249 252 251 251 250 251 252 252 253 252 251 252 252 252 253 255 257 259 259 261 265 266 268 269 271 270 270 270 271
264 262 262 262 260 259 261 265 261 261 260 259 259 259 261 259 257 255 253 250 251 253 253 252 251 251 253 252 253 254 252 252 253 252 253 255 256 258 260 262 264 265 268 269 270 270 270 270 271
267 265 264 264 263 265 266 269 266 265 263 262 263 263 262 261 258 257 254 252 252 253 253 253 253 253 254 254 254 254 253 253 253 253 253 255 256 258 261 262 265 266 267 268 269 270 271 271 273
272 269 269 269 269 270 270 272 271 268 269 269 269 267 267 264 261 259 257 254 254 254 255 254 254 254 254 255 256 255 254 254 254 254 255 255 257 259 262 264 265 265 266 268 269 269 270 272 273
278 277 276 275 274 274 274 275 275 274 274 274 275 274 273 269 265 262 260 258 257 256 257 256 255 255 255 255 255 255 254 255 255 255 256 256 257 258 260 263 263 264 266 267 267 269 270 271 272
284 282 281 279 280 279 280 281 280 280 279 278 276 276 275 274 271 267 263 260 258 258 259 258 258 256 255 254 253 254 253 254 254 255 256 256 256 257 259 262 262 263 265 266 267 269 271 270 271
284 284 283 282 281 283 284 287 286 284 283 281 280 280 279 278 274 271 267 262 259 259 259 258 258 256 256 255 254 254 254 254 255 255 257 258 258 258 259 259 261 262 264 265 267 268 270 270 270
284 286 286 285 287 287 288 290 290 286 285 284 284 285 283 281 277 274 271 266 262 261 260 259 258 258 259 259 257 256 255 256 256 256 259 260 260 259 259 260 261 261 263 265 266 267 269 269 270
284 286 288 289 288 289 291 293 293 290 288 287 285 285 283 283 282 280 275 270 266 263 262 261 261 261 261 260 259 257 256 256 257 259 261 261 261 261 259 259 260 261 262 263 265 266 267 268 269
285 286 288 290 291 291 291 292 292 291 290 288 286 284 284 283 283 281 277 273 270 267 266 265 264 263 262 261 259 257 256 257 258 259 261 262 262 262 261 261 261 261 262 262 263 265 266 267 268
Height
5802 5803 5804 5806 5807 5808 5809 5813 5815 5817 5819 5821 5823 5824 5826 5828 5830 5834 5834 5834 5835 5837 5838 5840 5841 5842 5843 5845 5846 5847 5848 5848 5849 5850 5850 5850 5851 5851 5851 5851 5851 5851 5852 5852 5852 5852 5852 5852 5852
5796 5797 5799 5799 5800 5802 5805 5808 5810 5812 5814 5816 5817 5819 5820 5822 5824 5826 5828 5830 5832 5833 5835 5836 5838 5839 5840 5841 5843 5844 5845 5846 5847 5847 5848 5848 5848 5848 5848 5849 5849 5849 5850 5850 5850 5850 5850 5850 5850
5790 5791 5792 5792 5793 5796 5799 5802 5804 5806 5808 5810 5811 5813 5815 5817 5819 5821 5824 5825 5827 5829 5831 5833 5834 5836 5837 5838 5839 5841 5842 5843 5844 5845 5845 5845 5846 5845 5846 5846 5846 5847 5847 5847 5847 5848 5848 5848 5848
5784 5785 5785 5786 5787 5790 5793 5795 5797 5799 5800 5803 5805 5807 5809 5812 5814 5816 5818 5820 5822 5825 5827 5828 5830 5832 5833 5835 5836 5838 5839 5840 5841 5841 5842 5842 5843 5843 5843 5843 5844 5844 5845 5845 5845 5845 5845 5846 5846
5777 5777 5778 5778 5781 5784 5786 5788 5790 5792 5794 5796 5798 5800 5803 5806 5808 5809 5812 5815 5817 5820 5822 5824 5826 5827 5829 5831 5832 5834 5835 5836 5837 5838 5839 5839 5839 5839 5840 5840 5841 5841 5842 5842 5842 5842 5842 5843 5843
5770 5770 5771 5772 5775 5776 5778 5780 5782 5785 5787 5790 5792 5794 5797 5800 5802 5803 5806 5809 5812 5815 5817 5819 5821 5823 5824 5826 5828 5829 5831 5832 5833 5834 5835 5835 5836 5836 5836 5837 5837 5838 5838 5839 5839 5839 5839 5839 5839
5764 5764 5764 5766 5767 5769 5771 5773 5776 5779 5781 5784 5786 5788 5791 5794 5796 5797 5800 5803 5807 5809 5811 5814 5816 5818 5819 5821 5823 5824 5826 5828 5829 5830 5831 5831 5832 5832 5833 5833 5834 5834 5835 5835 5835 5836 5836 5836 5836
5757 5758 5758 5759 5760 5762 5764 5766 5770 5772 5775 5777 5779 5782 5785 5788 5789 5791 5794 5797 5800 5803 5806 5808 5810 5812 5814 5815 5817 5819 5821 5823 5824 5825 5826 5827 5827 5828 5828 5829 5830 5830 5830 5831 5831 5831 5832 5832 5832
5751 5752 5751 5753 5754 5756 5758 5761 5764 5766 5768 5770 5773 5776 5779 5781 5783 5785 5788 5791 5794 5797 5800 5802 5804 5806 5808 5810 5811 5813 5815 5817 5818 5820 5821 5822 5822 5823 5824 5824 5825 5825 5826 5826 5827 5827 5827 5827 5827
5745 5745 5746 5746 5748 5750 5752 5755 5757 5759 5761 5764 5766 5769 5772 5774 5776 5779 5782 5785 5788 5791 5794 5796 5798 5800 5802 5803 5805 5807 5809 5810 5812 5814 5815 5816 5817 5818 5818 5819 5820 5820 5821 5821 5821 5822 5822 5822 5822
5739 5739 5739 5740 5741 5744 5746 5749 5751 5752 5755 5758 5760 5763 5765 5767 5770 5773 5776 5779 5782 5785 5787 5789 5792 5793 5795 5796 5799 5800 5802 5804 5805 5807 5808 5810 5811 5812 5813 5813 5814 5815 5815 5815 5816 5816 5816 5816 5816
5733 5733 5733 5734 5735 5738 5740 5743 5745 5747 5750 5751 5754 5756 5758 5760 5763 5766 5770 5772 5775 5778 5780 5783 5784 5786 5788 5789 5791 5793 5795 5797 5798 5800 5801 5803 5804 5805 5806 5807 5808 5809 5809 5809 5810 5810 5809 5809 5809
5727 5727 5728 5728 5730 5732 5734 5736 5738 5741 5743 5744 5746 5749 5751 5753 5756 5759 5763 5766 5769 5771 5773 5775 5777 5778 5780 5781 5783 5785 5787 5789 5791 5792 5794 5795 5797 5799 5800 5800 5801 5802 5802 5803 5803 5803 5803 5802 5802
5721 5721 5722 5723 5724 5726 5728 5730 5732 5736 5736 5738 5739 5742 5744 5746 5749 5753 5756 5759 5761 5763 5765 5767 5769 5770 5772 5773 5775 5777 5779 5781 5783 5785 5786 5787 5789 5791 5792 5793 5794 5794 5795 5795 5796 5796 5795 5795 5795
5715 5716 5717 5717 5718 5719 5722 5725 5727 5728 5729 5731 5733 5735 5737 5739 5741 5745 5748 5751 5753 5755 5757 5759 5761 5762 5763 5764 5766 5768 5770 5772 5774 5776 5778 5780 5782 5783 5784 5785 5786 5787 5787 5788 5788 5788 5788 5787 5787
5710 5710 5711 5712 5712 5713 5716 5719 5720 5720 5722 5724 5726 5728 5730 5731 5734 5736 5739 5742 5745 5747 5749 5751 5752 5754 5755 5756 5757 5759 5761 5763 5766 5767 5769 5771 5773 5775 5776 5777 5778 5779 5779 5779 5780 5780 5779 5779 5779
5704 5704 5705 5706 5706 5707 5709 5711 5713 5713 5715 5717 5719 5721 5722 5724 5726 5728 5731 5733 5735 5737 5740 5741 5743 5745 5746 5747 5748 5750 5752 5754 5756 5758 5760 5763 5764 5766 5768 5769 5769 5770 5770 5771 5771 5771 5771 5771 5770
5698 5698 5699 5699 5700 5701 5702 5704 5706 5706 5707 5709 5711 5712 5714 5716 5718 5719 5721 5724 5725 5728 5730 5732 5734 5735 5736 5737 5739 5741 5743 5745 5747 5749 5751 5753 5755 5757 5758 5760 5760 5761 5761 5761 5761 5761 5761 5761 5761
5692 5692 5693 5694 5694 5694 5695 5697 5699 5699 5700 5702 5703 5704 5706 5707 5709 5710 5712 5714 5716 5718 5720 5722 5724 5725 5726 5728 5729 5731 5733 5735 5737 5739 5741 5743 5745 5747 5748 5750 5750 5751 5751 5751 5751 5751 5751 5751 5750
5685 5686 5687 5688 5688 5688 5689 5691 5692 5693 5693 5694 5695 5696 5697 5698 5699 5700 5701 5703 5705 5707 5709 5711 5713 5714 5716 5718 5720 5721 5723 5725 5727 5729 5731 5733 5735 5737 5738 5739 5740 5740 5740 5740 5740 5740 5739 5739 5738
5679 5680 5680 5681 5681 5682 5683 5684 5686 5686 5685 5685 5686 5687 5688 5689 5690 5690 5691 5693 5695 5696 5698 5700 5702 5703 5705 5707 5709 5711 5712 5714 5716 5719 5721 5723 5725 5726 5727 5728 5729 5729 5729 5729 5728 5727 5727 5727 5726
5674 5674 5674 5675 5675 5675 5676 5676 5679 5678 5677 5677 5677 5678 5678 5679 5679 5680 5681 5682 5684 5686 5687 5689 5690 5692 5694 5696 5698 5700 5702 5704 5707 5709 5711 5712 5713 5715 5716 5717 5717 5717 5717 5717 5717 5716 5715 5715 5714
5669 5669 5669 5669 5669 5669 5669 5669 5672 5670 5670 5670 5669 5669 5668 5668 5669 5669 5670 5671 5673 5675 5676 5678 5679 5681 5682 5685 5687 5688 5690 5693 5695 5697 5699 5701 5702 5704 5705 5705 5706 5706 5706 5706 5705 5705 5704 5703 5702
5665 5665 5664 5664 5664 5664 5664 5663 5664 5663 5662 5661 5661 5660 5658 5658 5657 5658 5658 5659 5661 5663 5664 5665 5667 5669 5671 5673 5675 5677 5679 5681 5683 5685 5688 5689 5691 5692 5693 5693 5694 5694 5694 5694 5694 5693 5692 5691 5691
5661 5661 5660 5658 5658 5658 5657 5656 5657 5656 5654 5653 5652 5650 5649 5647 5647 5647 5647 5647 5648 5649 5651 5652 5655 5657 5658 5660 5662 5665 5667 5669 5671 5673 5675 5677 5679 5680 5681 5681 5682 5682 5683 5682 5682 5682 5681 5680 5679
5656 5656 5655 5654 5652 5652 5651 5650 5651 5649 5647 5645 5643 5641 5640 5638 5637 5636 5636 5636 5636 5637 5638 5640 5642 5644 5645 5647 5650 5652 5654 5657 5659 5661 5662 5664 5666 5668 5669 5669 5669 5670 5670 5671 5670 5670 5670 5669 5668
5651 5650 5650 5648 5646 5645 5645 5645 5644 5642 5639 5638 5636 5634 5632 5630 5628 5627 5626 5626 5626 5626 5627 5628 5629 5631 5632 5634 5636 5638 5641 5643 5645 5648 5649 5651 5653 5654 5656 5656 5657 5657 5658 5658 5659 5659 5658 5658 5658
5647 5646 5645 5643 5640 5639 5639 5638 5637 5634 5632 5630 5628 5626 5624 5622 5620 5618 5617 5616 5616 5616 5616 5617 5618 5619 5620 5622 5624 5626 5629 5631 5633 5635 5637 5638 5640 5641 5642 5643 5644 5645 5645 5646 5647 5647 5647 5647 5646
5642 5641 5639 5637 5635 5634 5632 5634 5630 5627 5625 5623 5621 5618 5616 5613 5611 5609 5608 5607 5606 5606 5606 5607 5607 5608 5609 5610 5612 5614 5617 5619 5621 5623 5625 5626 5627 5628 5629 5630 5631 5632 5633 5634 5634 5635 5635 5635 5635
5636 5635 5633 5632 5630 5628 5626 5629 5624 5621 5618 5616 5614 5611 5608 5606 5604 5602 5600 5598 5598 5598 5598 5598 5598 5598 5599 5599 5600 5602 5605 5606 5609 5611 5612 5613 5615 5616 5617 5618 5619 5620 5620 5621 5622 5622 5623 5623 5623